Regional Weather Roundup
Issued by NWS

Home | Current Version | Previous Version | Text Only | Print | Product List | Glossary On
Versions: 1 2 3 4 5 6 7 8 9 10 11 12 13 14 15 16 17 18 19 20 21 22 23 24 25 26 27 28 29 30 31 32 33 34 35 36 37 38 39 40 41 42 43 44 45 46 47 48 49 50
000
ASUS45 KTFX 200810
RWRMT
MONTANA REGIONAL WEATHER ROUNDUP
NATIONAL WEATHER SERVICE GREAT FALLS MT
100 AM MST FRI JAN 20 2017

NOTE: "FAIR" INDICATES FEW OR NO CLOUDS BELOW 12000 FEET WITH NO
SIGNIFICANT WEATHER AND/OR OBSTRUCTIONS TO VISIBILITY.

MTZ001>007-043-200900-
WEST OF THE DIVIDE

CITY           SKY/WX    TMP DP  RH WIND       PRES   REMARKS
KALISPELL      FOG       25  23  92 CALM      29.54F VSB 1/4
MISSOULA       FOG       32  32 100 SW7       29.58F VSB 1/4 WCI  26
BUTTE          CLOUDY    18  15  88 SE3       29.53S
MULLAN PASS    FOG       27  23  85 VRB5      29.49F VSB 3/4
ANACONDA         N/A     30  28  93 CALM      29.53S
DEER LODGE       N/A     32  32 100 CALM      29.56S
EUREKA           N/A     36  30  80 S5        29.54F
HAMILTON         N/A     30  28  93 CALM      29.57S VSB 0
$$

MTZ008-052>055-200900-
SOUTHWEST MONTANA

CITY           SKY/WX    TMP DP  RH WIND       PRES   REMARKS
BOZEMAN        CLOUDY    34  28  79 CALM      29.53S
DILLON         CLOUDY    28  15  58 VRB3      29.53F
W YELLOWSTONE  CLOUDY    25  23  93 W6        29.58S WCI  18
ENNIS          CLOUDY    32  23  69 S16       29.58F WCI  21
TWIN BRIDGES     N/A     28  18  66 E3        29.59F
$$

MTZ009-010-012-014-046-048-049-054-200900-
EAST SLOPES AND CENTRAL MONTANA

CITY           SKY/WX    TMP DP  RH WIND       PRES   REMARKS
CUT BANK       CLOUDY    35  23  61 W16       29.43F WCI  25
GREAT FALLS    CLOUDY    36  26  67 SW14      29.46F WCI  27
MALMSTROM AFB  CLOUDY    36  29  75 SW9       29.47F WCI  29
HELENA         CLOUDY    32  27  81 CALM      29.52F
AUGUSTA        MOCLDY    31  22  69 W9        29.46F WCI  23
BOWMANS CRNR   MOCLDY    30  26  83 S12       29.46F WCI  21
CHOTEAU          N/A     32  23  69 CALM      29.47S
CONRAD           N/A     35  30  82 S6        29.51F WCI  30
POWER          MOCLDY    32  27  81 SW8       29.45F WCI  25
RAYNESFORD     CLOUDY    39  25  57 SW12      29.46F
ULM            CLOUDY    34  28  77 MISG      29.48S
$$

MTZ011-013-016-021-045-047-050-051-200900-
NORTH CENTRAL MONTANA

CITY           SKY/WX    TMP DP  RH WIND       PRES   REMARKS
HAVRE          CLOUDY    33  31  92 SW14      29.44S WCI  23
LEWISTOWN      CLOUDY    34  32  92 SW7       29.47S WCI  28
CHINOOK          N/A     39  28  65 W5        29.44S
DENTON         MOCLDY    38  30  72 SW10      29.43F WCI  31
FORT BENTON      N/A     39  28  65 MISG      29.47F
GEYSER         MOCLDY    37  28  68 W13       29.45F WCI  29
GRASS RANGE    CLOUDY    38  33  80 W10       29.43F WCI  31
JUDITH GAP     CLOUDY    33  30  88 S6        29.46F WCI  28
ROY            MOCLDY    38  33  79 MISG      29.44S
STANFORD       MOCLDY    38  28  66 W15       29.45F WCI  29
WINIFRED       MOCLDY    38  31  77 SW9       29.44F WCI  31
$$

MTZ017>020-022>027-061-062-200900-
NORTHEAST MONTANA

CITY           SKY/WX    TMP DP  RH WIND       PRES   REMARKS
GLASGOW        CLOUDY    27  22  81 NW9       29.43R WCI  18
JORDAN           N/A     36  32  85 W8        29.44S WCI  30
SIDNEY         CLOUDY    16  14  92 SW5       29.42F
WOLF POINT     CLOUDY    18  15  88 CALM      29.44S
PLENTYWOOD       N/A     23  21  93 NW7       29.39F WCI  15
POPLAR           N/A     19  18  93 W8        29.43S WCI   9
SCOBEY           N/A     22  15  74 CALM      29.42S
$$

MTZ028>42-056>058-200900-
SOUTHCENTRAL AND SOUTHEAST MONTANA

CITY           SKY/WX    TMP DP  RH WIND       PRES   REMARKS
BAKER          CLOUDY    18  14  84 NW5       29.44R
BILLINGS       LGT RAIN  33  31  92 SW10      29.49F WCI  25
LIVINGSTON     CLOUDY    35  28  75 W8        29.50F WCI  29
MILES CITY     CLOUDY    19  15  84 SE7       29.46F WCI  10
BIG TIMBER     CLOUDY    37  27  65 W14       29.51S WCI  29
FORSYTH          N/A     32  27  80 W5        29.46S
HARLOWTON      CLOUDY    36  29  75 W20       29.47F WCI  25
LAUREL           N/A     32  24  72 SW3       29.52F
$$

REGIONAL REPORTS...DAKOTAS

CITY           SKY/WX    TMP DP  RH WIND       PRES   REMARKS
WILLISTON      CLOUDY    15  14  95 CALM      29.41F FOG
MINOT          CLOUDY    22  18  85 S6        29.40S WCI  14
DICKINSON      CLOUDY    19  14  81 W12       29.36F WCI   7
BEACH            N/A     27  23  86 W8        29.44S WCI  18
CROSBY           N/A     18  16  93 S15       29.41S WCI   3
TIOGA            N/A     14  14 100 CALM      29.40F
WATFORD CITY     N/A     16  14  93 SW7       29.42S WCI   6
BISMARCK       FOG       18  17  96 E6        29.45F VSB 1/4 WCI  10
GRAND FORKS    CLOUDY    35  33  92 S8        29.54S FOG     WCI  29
FARGO          CLOUDY    49  35  58 S13       29.56R HAZE
BUFFALO SD       N/A     24  18  77 W16       29.33F WCI  11
RAPID CITY     CLOUDY    28  19  69 NW8       29.40S WCI  20
$$

REGIONAL REPORTS...WYOMING/IDAHO/WASHINGTON

CITY           SKY/WX    TMP DP  RH WIND       PRES   REMARKS
GILLETTE       CLOUDY    30  23  75 W12       29.45F WCI  20
SHERIDAN       CLOUDY    37  27  67 W15       29.48F WCI  28
BUFFALO WY     CLOUDY    37  22  54 NW9       29.47F WCI  30
CODY           CLOUDY    36  22  56 W5        29.50S
YELLOWSTONE LA   N/A     22  19  89 VRB3      29.59R
IDAHO FALLS    CLOUDY    28  26  92 S7        29.63F WCI  21
SALMON         CLOUDY    25  25 100 CALM      29.59F
BOISE          CLOUDY    35  31  85 SE7       29.60F WCI  29
SPOKANE        MOCLDY    30  28  92 CALM      29.53F
$$

REGIONAL REPORTS...ALBERTA

CITY           SKY/WX    TMP DP  RH WIND       PRES   REMARKS
EDMONTON       CLEAR     28  18  64 SW8       29.28  WCI  20
CALGARY        MOCLDY    30  18  59 CALM      29.33R
LETHBRIDGE     MOCLDY    36  25  64 W13       29.40F WCI  27
MEDICINE HAT   MOCLDY    34  28  80 SW12      29.38S WCI  25
WATERTON GATE    N/A     36  18  48 SW20G29     N/A  WCI  25
MILK RIVER       N/A     34  27  75 NW5         N/A
$$

REGIONAL REPORTS...SASKATCHEWAN

CITY           SKY/WX    TMP DP  RH WIND       PRES   REMARKS
SWIFT CURRENT  CLOUDY    39  28  65 SW17G23   29.33S WCI  30
REGINA         CLEAR     23  21  93 SE7       29.37S WCI  15
SASKATOON      PTCLDY    32  28  86 SW12      29.29S WCI  23
CYPRESS HILLS    N/A     36  16  44 W10         N/A  WCI  28
VAL MARIE        N/A     34  30  86 SW3         N/A
ROCKGLEN         N/A     34  28  80 W9          N/A  WCI  26
ASSINIBOIA       N/A     19  18  93 SW2         N/A
$$



USA.gov is the U.S. government's official web portal to all federal, state and local government web resources and services.